Starlink 31876

operational
NORAD ID: 59938 Int'l Des: 2024-106 Owner: SPXS Country: US Constellation: starlink
LEOCIRCULAR

Starlink 31876について

説明を読み込み中...

リアルタイム位置

3D地球を読み込み中...

次回通過

高度履歴

Altitude vs Time

uPlot chart will show altitude changes over time

軌道要素

1 59938U 24106S 25257.34144365 -.00003303 00000-0 -11069-3 0 9999
2 59938 42.9999 248.3539 0000771 269.4680 90.6083 15.27543640 73566
Epoch: Sep 14, 2025 • Age: 27 hours

現在のステータス

高度 484.6 km
速度 7.63 km/s
衛星直下点 32.34°N, 146.7°W
打ち上げ日 Jun 1, 2024
運用期間 1.2 years
タイプ internet

技術仕様

分類 Payload
質量 730.00 kg
乾燥質量 700.00 kg
総質量 730.00 kg
長さ 0.30 m
直径 4.10 m
スパン 29.00 m
形状 Box + pan
製造者 SPXS
バスタイプ Starlink V2M
フェーズステータス In Orbit
所有者/国 SPXS/US

大規模コンステレーション

Loading constellations...